Location: Unspecified
(52.4808°N, 1.9020°W)
Time: 23:37:40
(UTC+01:00)

ISS - Visible Passes

Search period start: 18 January 2019 00:00
Search period end: 28 January 2019 00:00
Orbit: 404 x 410 km, 51.6° (Epoch: 18 January)

Date Brightness Start Highest point End Pass type
(mag) Time Alt. Az. Time Alt. Az. Time Alt. Az.
23 Jan -1.2 20:12:56 10° SSW 20:13:37 14° SSW 20:13:37 14° SSW visible
24 Jan -1.8 19:22:17 10° S 19:24:28 16° SE 19:24:32 16° SE visible
25 Jan -1.3 18:32:27 10° SSE 18:33:18 11° SE 18:34:09 10° ESE visible
25 Jan -2.3 20:06:03 10° SW 20:08:06 29° SSW 20:08:06 29° SSW visible
26 Jan -2.5 19:14:58 10° SSW 19:17:51 28° SSE 19:18:52 23° ESE visible
26 Jan -0.8 20:50:48 10° WSW 20:51:36 16° WSW 20:51:36 16° WSW visible
27 Jan -1.9 18:24:08 10° SSW 18:26:36 20° SE 18:29:04 10° E visible
27 Jan -3.3 19:59:26 10° WSW 20:02:19 53° SSW 20:02:19 53° SSW visible
